[Iaude] MPEC R38: 2023 RR [a=1.80,e=0.72,i=3.7,H=24.4]
    mpec at marsden.cfa.harvard.edu 
    mpec at marsden.cfa.harvard.edu
       
    Thu Sep  7 15:48:48 EDT 2023
    
    
  
M.P.E.C. 2023-R38                             Issued 2023 September 7, 19:47 UT
     The Minor Planet Electronic Circulars contain information on unusual
         minor planets, routine data on comets and natural satellites,
         and occasional editorial announcements.  They are published
    on behalf of Division F of the International Astronomical Union by the
          Minor Planet Center, Smithsonian Astrophysical Observatory,
                          Cambridge, MA 02138, U.S.A.
			  
             Prepared using the Tamkin Foundation Computer Network
                              MPC at CFA.HARVARD.EDU
            URL https://www.minorplanetcenter.net/    ISSN 1523-6714
                                    2023 RR                                     
Observations:
     K23R00R*1C2023 09 06.19653521 58 51.967+06 30 48.24         20.23GVER038G96
     K23R00R 1C2023 09 06.20220421 58 47.464+06 31 16.64         20.48GVER038G96
     K23R00R 1C2023 09 06.20786621 58 42.960+06 31 44.72         20.36GVER038G96
     K23R00R 1C2023 09 06.21355021 58 38.438+06 32 13.60         20.28GVER038G96
     K23R00R 1C2023 09 06.39717721 56 09.233+06 47 48.55         20.83GVER038G96
     K23R00R 1C2023 09 06.39736021 56 09.071+06 47 49.49         20.33GVER038G96
     K23R00R 1C2023 09 06.39754421 56 08.905+06 47 50.24         20.08GVER038G96
     K23R00R 1C2023 09 06.39828321 56 08.304+06 47 54.42         20.13GVER038G96
     K23R00R 1C2023 09 06.80688321 50 32.070+07 24 34.30               VER038246
     K23R00R 1C2023 09 06.80756721 50 31.290+07 24 37.30               VER038246
     K23R00R 0B2023 09 06.81104 21 50 29.17 +07 26 53.0          19.6 VZER038M49
     K23R00R 0B2023 09 06.82218 21 50 18.94 +07 27 56.5          19.7 VZER038M49
     K23R00R 0B2023 09 06.83398 21 50 08.08 +07 29 04.6          20.2 VZER038M49
     K23R00R KC2023 09 06.87629421 49 29.10 +07 31 16.4          20.4 GVER038204
     K23R00R KC2023 09 06.88867621 49 17.61 +07 32 28.2                VER038204
     K23R00R KC2023 09 06.89345321 49 12.75 +07 32 57.0          20.5 GVER038L01
     K23R00R KC2023 09 06.89501021 49 11.32 +07 33 05.5          20.3 GVER038L01
     K23R00R KC2023 09 06.89657321 49 09.89 +07 33 14.3          20.1 GVER038L01
     K23R00R KC2023 09 06.89813421 49 08.40 +07 33 22.7          20.5 GVER038L01
     K23R00R KC2023 09 06.89969221 49 06.95 +07 33 32.5          20.2 GVER038L01
     K23R00R KC2023 09 06.90106121 49 06.11 +07 33 39.7                VER038204
     K23R00R KC2023 09 06.97212721 47 59.15 +07 40 34.1          20.3 GVER038K51
     K23R00R KC2023 09 06.98411121 47 47.78 +07 41 44.4          20.0 GVER038K51
     K23R00R KB2023 09 06.98530121 47 47.51 +07 41 53.9          20.4 GVER038I93
     K23R00R KB2023 09 06.99059121 47 42.48 +07 42 24.9                VER038I93
     K23R00R KB2023 09 06.99579221 47 37.52 +07 42 55.2          19.8 GVER038I93
     K23R00R KC2023 09 07.07991921 46 23.86 +07 51 23.2          19.8 VuER038H21
     K23R00R KC2023 09 07.08184921 46 21.99 +07 51 34.5          19.9 VuER038H21
     K23R00R KC2023 09 07.08377721 46 20.12 +07 51 46.4          19.7 VuER038H21
     K23R00R KC2023 09 07.08570621 46 18.26 +07 51 58.1          19.7 VuER038H21
     K23R00R 1C2023 09 07.78670321 34 12.990+09 07 53.60               VER038246
     K23R00R 1C2023 09 07.78698621 34 12.690+09 07 54.60               VER038246
Observer details:
204 Schiaparelli Observatory.  Observers L. Buzzi, G. Galli.  0.84-m f/3.5
    reflector + CCD.
246 Klet Observatory-KLENOT.  Observers M. Tichy, J. Ticha, M. Janda, M.
    Honkova.  Measurer M. Tichy.  1.06-m f/2.7 Reflector + 2048x2048 CCD.
G96 Mt. Lemmon Survey.  Observer A. R. Gibbs.  Measurers E. J. Christensen, D.
    Fay, J. B. Fazekas, D. C. Fuls, A. R. Gibbs, A. D. Grauer, H. Groeller, J.
    K. Hogan, R. A. Kowalski, S. M. Larson, G. J. Leonard, D. Rankin, R. L.
    Seaman, A. Serrano, F. C. Shelly, K. W. Wierzchos.  1.5-m reflector + 10K
    CCD.
H21 Astronomical Research Observatory, Westfield.  Observer R. Holmes.
    Measurers T. Linder, R. Holmes, L. Horn.  0.76-m f/3.0 astrograph + CCD.
I93 St Pardon de Conques.  Observer F. Losse.  0.40-m f/3.7 reflector + CMO.
K51 Osservatorio del Celado, Castello Tesino.  Observer M. Campestrin.  0.80-m
    f/4 reflector + CCD.
L01 Visnjan Observatory, Tican.  Observers K. Korlevic, I. Lyon.  Measurer K.
    Korlevic.  1.0-m f/2.9 reflector + CCD.
M49 IAS Remote Observatory, Hakos.  Observers D. Husar, M. Junius.  Measurer
    D. Husar.  0.25-m f/4.6 reflector + CMO.
Orbital elements:
2023 RR                                                  Earth MOID = 0.0327 AU
Epoch 2023 Sept. 13.0 TT = JDT 2460200.5                Veres                   
M 340.17647              (2000.0)            P               Q                  
n   0.40753803     Peri.  130.26147     +0.02446386     -0.99876575             
a   1.8017338      Node   318.27526     +0.89636510     +0.04105968             
e   0.7153836      Incl.    3.72384     +0.44264109     -0.02794769             
P   2.42           H   24.41          G   0.15           U   9                  
Residuals in seconds of arc
230906 G96  0.5+  0.1+    230906 M49  0.2+  0.1+    230906 K51  0.1+  0.1+
230906 G96  0.3+  0.1+    230906 M49  0.1+  0.3+    230906 I93  0.4-  0.0
230906 G96  0.2+  0.2-    230906 204  0.1-  0.1+    230906 I93  0.3-  0.2-
230906 G96  0.2+  0.1+    230906 204  0.4-  0.3+    230906 I93  0.4-  0.6-
230906 G96  0.2+  0.1+    230906 L01  0.7-  0.5+    230907 H21  0.1-  0.1+
230906 G96  0.0   0.1+    230906 L01  0.5-  0.1-    230907 H21  0.1-  0.3-
230906 G96  0.2-  0.1-    230906 L01  0.1-  0.3-    230907 H21  0.1-  0.1-
230906 G96  0.1-  0.3+    230906 L01  0.7-  1.0-    230907 H21  0.0   0.1-
230906 246  0.4+  0.3+    230906 L01  0.6-  0.2-    230907 246  0.6-  0.0
230906 246  2.1-  0.6-    230906 204  0.1-  0.0     230907 246  0.1-  1.0-
230906 M49  0.5+  0.6+    230906 K51  0.4+  0.1+
Ephemeris:
2023 RR                  a,e,i = 1.80, 0.72, 4                   q = 0.5128
Date    TT    R. A. (2000) Decl.     Delta      r    Elong.  Phase     V
2023 08 08    23 13 30.1 -03 29 51   0.4835  1.4436   146.9    22.5    24.7
...
2023 08 23    23 03 55.6 -01 12 02   0.2714  1.2724   162.1    14.1    22.9
...
2023 08 31    22 43 53.8 +01 23 26   0.1688  1.1760   169.4     9.0    21.5
...
2023 09 06    22 01 16.8 +06 15 23   0.09801 1.1013   161.0    17.3    20.5
2023 09 07    21 47 35.8 +07 44 16   0.08715 1.0887   157.0    21.2    20.3
2023 09 08    21 30 02.4 +09 34 39   0.07680 1.0761   151.9    26.2    20.2
...
2023 09 14    16 47 48.8 +24 21 44   0.04574 0.9992    79.9    97.5    21.2
...
2023 09 22    13 01 14.0 +13 04 28   0.1178  0.8948    20.8   156.6    29.4
...
2023 10 07    12 09 00.4 +06 57 14   0.3149  0.7016    15.6   157.4    31.3
M. P. C. Staff               (C) Copyright 2023 MPC           M.P.E.C. 2023-R38
    
    
More information about the Iaude
mailing list